Tracking 25723 objects as of 26-Jun-2022
HD Live streaming from Space Station
objects crossing your sky now

LEMUR 1

Track LEMUR 1 now!
10-day predictions
LEMUR 1 is classified as:


NORAD ID: 40044
Int'l Code: 2014-033AL
Perigee: 610.9 km
Apogee: 694.5 km
Inclination: 97.7 °
Period: 97.6 minutes
Semi major axis: 7023 km
RCS: Unknown
Launch date: June 19, 2014
Source: United States (US)
Launch site: Orenburg, Russia (OREN)
aabbcc
Your satellite tracking list
Your tracking list is empty




NASA's NSSDC Master Catalog

Two Line Element Set (TLE):
1 40044U 14033AL  22177.50807564  .00000836  00000-0  12830-3 0  9991
2 40044  97.6579   5.5565 0059570 128.9734 231.6805 14.74869253430813
Source of the keplerian elements: AFSPC